CHH427 ZGSZ-ZJHK

Flight info

Callsign CHH427
Flight time 1h 3m
Altitude 27600
Route NLG DCT KIBAS R200 BIGRO G221 GIVIV W605 DOMGO DOMGO5XA
Aircraft B739/M-SDE2E3FGHIRWXY/LB1

Departure

Time 2026-04-27 02:40
Airport Shenzhen Bao'an International Airport (ZGSZ)

Arrival

Time 2026-04-27 03:44
Airport Haikou Meilan International Airport (ZJHK)
Time Latitude Longitude Altitude Speed Heading
2026-04-27 02:30 22.63522 113.79847 8 ft 9 kts 243°
2026-04-27 02:30 22.63506 113.79783 7 ft 9 kts 279°
2026-04-27 02:31 22.63552 113.79742 7 ft 9 kts 326°
2026-04-27 02:31 22.63605 113.79714 8 ft 8 kts 333°
2026-04-27 02:31 22.63658 113.79689 9 ft 8 kts 340°
2026-04-27 02:31 22.63708 113.79663 10 ft 8 kts 332°
2026-04-27 02:32 22.63756 113.79634 10 ft 8 kts 332°
2026-04-27 02:32 22.63804 113.79608 9 ft 8 kts 334°
2026-04-27 02:32 22.63851 113.79582 10 ft 7 kts 331°
2026-04-27 02:32 22.63895 113.79557 11 ft 7 kts 334°
2026-04-27 02:33 22.63963 113.79521 12 ft 22 kts 333°
2026-04-27 02:33 22.64108 113.79444 13 ft 23 kts 333°
2026-04-27 02:33 22.64253 113.79366 11 ft 23 kts 333°
2026-04-27 02:33 22.64400 113.79286 9 ft 23 kts 334°
2026-04-27 02:34 22.64543 113.79210 8 ft 23 kts 334°
2026-04-27 02:34 22.64680 113.79132 6 ft 22 kts 332°
2026-04-27 02:34 22.64820 113.79053 6 ft 23 kts 332°
2026-04-27 02:34 22.64957 113.78976 8 ft 22 kts 332°
2026-04-27 02:35 22.65094 113.78904 8 ft 22 kts 333°
2026-04-27 02:35 22.65225 113.78830 10 ft 21 kts 332°
2026-04-27 02:35 22.65356 113.78756 7 ft 21 kts 333°
2026-04-27 02:35 22.65465 113.78693 6 ft 13 kts 329°
2026-04-27 02:36 22.65498 113.78646 6 ft 8 kts 271°
2026-04-27 02:36 22.65487 113.78611 6 ft 0 kts 246°
2026-04-27 02:38 22.65486 113.78608 7 ft 6 kts 246°
2026-04-27 02:39 22.65454 113.78541 5 ft 11 kts 230°
2026-04-27 02:39 22.65369 113.78526 6 ft 14 kts 153°
2026-04-27 02:39 22.65351 113.78535 6 ft 0 kts 153°
2026-04-27 02:39 22.65204 113.78617 8 ft 58 kts 153°
2026-04-27 02:40 22.64630 113.78932 8 ft 125 kts 153°
2026-04-27 02:40 22.63685 113.79460 10 ft 179 kts 152°
2026-04-27 02:40 22.62457 113.80111 305 ft 204 kts 153°
2026-04-27 02:40 22.61148 113.80806 813 ft 215 kts 154°
2026-04-27 02:41 22.59691 113.81269 1373 ft 229 kts 176°
2026-04-27 02:41 22.58004 113.80897 1080 ft 277 kts 204°
2026-04-27 02:41 22.56342 113.79517 1054 ft 316 kts 227°
2026-04-27 02:41 22.55241 113.77506 2182 ft 312 kts 249°
2026-04-27 02:42 22.55018 113.75205 3295 ft 306 kts 279°
2026-04-27 02:42 22.55571 113.73050 4684 ft 289 kts 282°
2026-04-27 02:42 22.55889 113.70973 5963 ft 272 kts 272°
2026-04-27 02:42 22.55897 113.68979 7114 ft 258 kts 264°
2026-04-27 02:43 22.55696 113.67055 7941 ft 258 kts 258°
2026-04-27 02:43 22.55350 113.65140 8685 ft 261 kts 255°
2026-04-27 02:43 22.54921 113.63225 9421 ft 264 kts 253°
2026-04-27 02:43 22.54452 113.61296 10138 ft 266 kts 253°
2026-04-27 02:44 22.53968 113.59355 10838 ft 268 kts 253°
2026-04-27 02:44 22.53348 113.57455 11479 ft 270 kts 236°
2026-04-27 02:44 22.52054 113.56004 12034 ft 275 kts 212°
2026-04-27 02:44 22.50222 113.55178 12223 ft 297 kts 197°
2026-04-27 02:45 22.48160 113.54543 12376 ft 319 kts 195°
2026-04-27 02:45 22.45949 113.53892 12541 ft 340 kts 195°
2026-04-27 02:45 22.43601 113.53199 12681 ft 359 kts 195°
2026-04-27 02:45 22.41140 113.52463 12900 ft 373 kts 196°
2026-04-27 02:46 22.38623 113.51702 13414 ft 378 kts 196°
2026-04-27 02:46 22.36088 113.50929 14000 ft 379 kts 196°
2026-04-27 02:46 22.33536 113.50148 14509 ft 382 kts 197°
2026-04-27 02:46 22.30969 113.49361 14996 ft 386 kts 197°
2026-04-27 02:47 22.28375 113.48567 15453 ft 390 kts 197°
2026-04-27 02:47 22.25760 113.47754 15926 ft 392 kts 200°
2026-04-27 02:47 22.23346 113.46389 16301 ft 395 kts 219°
2026-04-27 02:47 22.21453 113.44267 16898 ft 393 kts 235°
2026-04-27 02:48 22.20534 113.42538 17219 ft 394 kts 246°
2026-04-27 02:48 22.19503 113.39798 17749 ft 395 kts 249°
2026-04-27 02:48 22.18518 113.37015 18180 ft 399 kts 249°
2026-04-27 02:48 22.17523 113.34204 18556 ft 402 kts 249°
2026-04-27 02:49 22.16508 113.31393 18983 ft 403 kts 249°
2026-04-27 02:49 22.15472 113.28577 19401 ft 405 kts 248°
2026-04-27 02:49 22.14423 113.25749 19796 ft 406 kts 248°
2026-04-27 02:49 22.13357 113.22918 20183 ft 408 kts 247°
2026-04-27 02:50 22.12214 113.20108 20573 ft 410 kts 246°
2026-04-27 02:50 22.11029 113.17302 20939 ft 412 kts 246°
2026-04-27 02:50 22.09833 113.14486 21316 ft 414 kts 246°
2026-04-27 02:50 22.08640 113.11659 21688 ft 416 kts 246°
2026-04-27 02:51 22.07449 113.08815 22049 ft 417 kts 246°
2026-04-27 02:51 22.06257 113.05955 22398 ft 419 kts 246°
2026-04-27 02:51 22.05061 113.03084 22739 ft 421 kts 246°
2026-04-27 02:51 22.03860 113.00202 23068 ft 422 kts 246°
2026-04-27 02:52 22.02687 112.97295 23405 ft 424 kts 248°
2026-04-27 02:52 22.01549 112.94361 23701 ft 425 kts 248°
2026-04-27 02:52 22.00416 112.91409 23966 ft 427 kts 248°
2026-04-27 02:52 21.99275 112.88451 24242 ft 428 kts 248°
2026-04-27 02:53 21.98127 112.85494 24517 ft 429 kts 248°
2026-04-27 02:53 21.96970 112.82529 24760 ft 430 kts 248°
2026-04-27 02:53 21.95795 112.79554 25021 ft 432 kts 248°
2026-04-27 02:53 21.94603 112.76581 25271 ft 433 kts 248°
2026-04-27 02:54 21.93403 112.73603 25532 ft 434 kts 248°
2026-04-27 02:54 21.92199 112.70616 25766 ft 435 kts 248°
2026-04-27 02:54 21.90994 112.67622 25998 ft 436 kts 248°
2026-04-27 02:54 21.89788 112.64622 26280 ft 437 kts 248°
2026-04-27 02:55 21.88583 112.61623 26606 ft 435 kts 248°
2026-04-27 02:55 21.87384 112.58639 26977 ft 433 kts 248°
2026-04-27 02:55 21.86189 112.55670 27354 ft 431 kts 248°
2026-04-27 02:55 21.85001 112.52711 27600 ft 430 kts 248°
2026-04-27 02:56 21.83818 112.49741 27571 ft 433 kts 248°
2026-04-27 02:56 21.82637 112.46767 27576 ft 432 kts 248°
2026-04-27 02:56 21.81460 112.43805 27589 ft 430 kts 248°
2026-04-27 02:56 21.80285 112.40847 27581 ft 430 kts 248°
2026-04-27 02:57 21.79110 112.37893 27584 ft 429 kts 248°
2026-04-27 02:57 21.77935 112.34944 27592 ft 428 kts 248°
2026-04-27 02:57 21.76762 112.32000 27585 ft 428 kts 248°
2026-04-27 02:57 21.75587 112.29056 27584 ft 428 kts 248°
2026-04-27 02:58 21.74414 112.26118 27586 ft 428 kts 248°
2026-04-27 02:58 21.73239 112.23175 27581 ft 428 kts 248°
2026-04-27 02:58 21.72064 112.20237 27582 ft 428 kts 248°
2026-04-27 02:58 21.70889 112.17299 27583 ft 428 kts 248°
2026-04-27 02:59 21.69713 112.14361 27583 ft 427 kts 248°
2026-04-27 02:59 21.68539 112.11428 27583 ft 427 kts 248°
2026-04-27 02:59 21.67362 112.08492 27579 ft 428 kts 248°
2026-04-27 02:59 21.66186 112.05558 27578 ft 428 kts 248°
2026-04-27 03:00 21.65009 112.02625 27582 ft 428 kts 248°
2026-04-27 03:00 21.63832 111.99690 27580 ft 428 kts 248°
2026-04-27 03:00 21.62653 111.96756 27585 ft 428 kts 248°
2026-04-27 03:00 21.61474 111.93820 27582 ft 428 kts 248°
2026-04-27 03:01 21.60293 111.90882 27575 ft 428 kts 248°
2026-04-27 03:01 21.59112 111.87948 27578 ft 428 kts 248°
2026-04-27 03:01 21.57906 111.84979 27592 ft 428 kts 246°
2026-04-27 03:01 21.56470 111.82176 27577 ft 430 kts 239°
2026-04-27 03:02 21.54666 111.79605 27575 ft 432 kts 232°
2026-04-27 03:02 21.52709 111.77163 27581 ft 432 kts 232°
2026-04-27 03:02 21.50740 111.74727 27594 ft 432 kts 232°
2026-04-27 03:02 21.48773 111.72288 27573 ft 432 kts 232°
2026-04-27 03:03 21.46813 111.69845 27587 ft 431 kts 232°
2026-04-27 03:03 21.42909 111.64955 27579 ft 431 kts 232°
2026-04-27 03:03 21.40959 111.62504 27576 ft 431 kts 232°
2026-04-27 03:04 21.39014 111.60059 27580 ft 431 kts 232°
2026-04-27 03:04 21.37066 111.57610 27576 ft 431 kts 232°
2026-04-27 03:04 21.35117 111.55161 27578 ft 431 kts 232°
2026-04-27 03:04 21.33173 111.52719 27579 ft 431 kts 232°
2026-04-27 03:05 21.31226 111.50275 27573 ft 431 kts 232°
2026-04-27 03:05 21.29277 111.47830 27574 ft 431 kts 232°
2026-04-27 03:05 21.27331 111.45391 27577 ft 431 kts 232°
2026-04-27 03:05 21.25383 111.42949 27576 ft 431 kts 232°
2026-04-27 03:06 21.23436 111.40510 27575 ft 431 kts 232°
2026-04-27 03:06 21.21490 111.38073 27570 ft 430 kts 232°
2026-04-27 03:06 21.19545 111.35638 27571 ft 430 kts 232°
2026-04-27 03:06 21.17599 111.33204 27575 ft 430 kts 232°
2026-04-27 03:07 21.15657 111.30775 27577 ft 429 kts 232°
2026-04-27 03:07 21.13717 111.28350 27576 ft 429 kts 232°
2026-04-27 03:07 21.11772 111.25920 27576 ft 429 kts 232°
2026-04-27 03:07 21.09833 111.23498 27572 ft 429 kts 232°
2026-04-27 03:08 21.07893 111.21075 27569 ft 429 kts 232°
2026-04-27 03:08 21.05951 111.18651 27575 ft 429 kts 232°
2026-04-27 03:08 21.04010 111.16230 27569 ft 428 kts 232°
2026-04-27 03:08 21.02069 111.13809 27566 ft 428 kts 232°
2026-04-27 03:09 21.00128 111.11390 27570 ft 428 kts 232°
2026-04-27 03:09 20.98188 111.08977 27567 ft 428 kts 231°
2026-04-27 03:09 20.96040 111.06753 27560 ft 432 kts 223°
2026-04-27 03:09 20.93614 111.04837 27563 ft 436 kts 217°
2026-04-27 03:10 20.90941 111.03275 27562 ft 441 kts 209°
2026-04-27 03:10 20.88139 111.01954 27572 ft 441 kts 208°
2026-04-27 03:10 20.85321 111.00654 27575 ft 441 kts 208°
2026-04-27 03:10 20.82504 110.99353 27566 ft 441 kts 208°
2026-04-27 03:11 20.79694 110.98041 27576 ft 441 kts 208°
2026-04-27 03:11 20.76889 110.96720 27569 ft 440 kts 208°
2026-04-27 03:11 20.74088 110.95393 27562 ft 440 kts 208°
2026-04-27 03:11 20.71289 110.94065 27562 ft 440 kts 208°
2026-04-27 03:12 20.68488 110.92737 27561 ft 440 kts 208°
2026-04-27 03:12 20.65689 110.91411 27559 ft 440 kts 208°
2026-04-27 03:12 20.62889 110.90087 27559 ft 440 kts 208°
2026-04-27 03:12 20.60088 110.88763 27558 ft 440 kts 208°
2026-04-27 03:13 20.57287 110.87441 27556 ft 440 kts 208°
2026-04-27 03:13 20.54491 110.86120 27557 ft 440 kts 208°
2026-04-27 03:13 20.51688 110.84800 27554 ft 440 kts 208°
2026-04-27 03:13 20.48747 110.83805 27509 ft 450 kts 194°
2026-04-27 03:14 20.45613 110.83511 27598 ft 453 kts 189°
2026-04-27 03:14 20.42421 110.83312 27548 ft 454 kts 188°
2026-04-27 03:14 20.39267 110.83118 27545 ft 454 kts 189°
2026-04-27 03:14 20.36110 110.82906 27554 ft 454 kts 189°
2026-04-27 03:15 20.32959 110.82676 27546 ft 454 kts 189°
2026-04-27 03:15 20.29801 110.82434 27545 ft 454 kts 189°
2026-04-27 03:15 20.26649 110.82188 27545 ft 454 kts 189°
2026-04-27 03:15 20.23496 110.81940 27547 ft 454 kts 189°
2026-04-27 03:16 20.20343 110.81694 27546 ft 454 kts 189°
2026-04-27 03:16 20.17186 110.81449 27546 ft 455 kts 189°
2026-04-27 03:16 20.14031 110.81205 27549 ft 455 kts 189°
2026-04-27 03:16 20.10880 110.80961 27545 ft 451 kts 189°
2026-04-27 03:17 20.07810 110.80727 27520 ft 434 kts 189°
2026-04-27 03:17 20.04850 110.80502 27525 ft 419 kts 190°
2026-04-27 03:17 20.01998 110.80273 27521 ft 405 kts 190°
2026-04-27 03:17 19.99202 110.80035 27524 ft 402 kts 191°
2026-04-27 03:18 19.96401 110.79790 27113 ft 404 kts 190°
2026-04-27 03:18 19.93633 110.79552 26847 ft 396 kts 190°
2026-04-27 03:18 19.90882 110.79317 26364 ft 396 kts 190°
2026-04-27 03:18 19.88154 110.79086 25974 ft 392 kts 189°
2026-04-27 03:19 19.85440 110.78858 25544 ft 390 kts 189°
2026-04-27 03:19 19.82745 110.78593 24979 ft 388 kts 196°
2026-04-27 03:19 19.80267 110.77587 24573 ft 376 kts 215°
2026-04-27 03:19 19.78257 110.75864 24064 ft 371 kts 231°
2026-04-27 03:20 19.76852 110.73603 23694 ft 365 kts 245°
2026-04-27 03:20 19.76038 110.71044 23133 ft 366 kts 260°
2026-04-27 03:20 19.75849 110.68367 22738 ft 363 kts 268°
2026-04-27 03:20 19.75872 110.65690 22264 ft 362 kts 270°
2026-04-27 03:21 19.75925 110.63034 21855 ft 359 kts 270°
2026-04-27 03:21 19.75951 110.60394 21434 ft 357 kts 269°
2026-04-27 03:21 19.75956 110.57769 21031 ft 354 kts 269°
2026-04-27 03:21 19.75951 110.55167 20577 ft 353 kts 269°
2026-04-27 03:22 19.75945 110.52534 19988 ft 357 kts 269°
2026-04-27 03:22 19.75938 110.49918 19614 ft 354 kts 269°
2026-04-27 03:22 19.75931 110.47296 19189 ft 353 kts 269°
2026-04-27 03:22 19.75927 110.45543 18949 ft 351 kts 269°
2026-04-27 03:23 19.75920 110.42945 18510 ft 351 kts 269°
2026-04-27 03:23 19.75913 110.40365 18103 ft 349 kts 269°
2026-04-27 03:23 19.75906 110.37787 17666 ft 348 kts 269°
2026-04-27 03:23 19.75898 110.35232 17263 ft 345 kts 269°
2026-04-27 03:24 19.75891 110.32693 16857 ft 343 kts 269°
2026-04-27 03:24 19.75883 110.30171 16482 ft 340 kts 269°
2026-04-27 03:24 19.75874 110.27666 16096 ft 338 kts 269°
2026-04-27 03:24 19.75877 110.25175 15713 ft 336 kts 272°
2026-04-27 03:25 19.76408 110.22763 15286 ft 337 kts 293°
2026-04-27 03:25 19.77637 110.20686 15008 ft 334 kts 311°
2026-04-27 03:25 19.79339 110.19008 14731 ft 331 kts 317°
2026-04-27 03:25 19.81082 110.17400 14273 ft 333 kts 317°
2026-04-27 03:26 19.82811 110.15791 13967 ft 329 kts 316°
2026-04-27 03:26 19.84208 110.13890 13515 ft 327 kts 294°
2026-04-27 03:26 19.84855 110.11612 13189 ft 322 kts 275°
2026-04-27 03:26 19.84895 110.09255 12920 ft 316 kts 269°
2026-04-27 03:27 19.84858 110.06928 12538 ft 315 kts 269°
2026-04-27 03:27 19.84829 110.04613 12303 ft 309 kts 269°
2026-04-27 03:27 19.84807 110.02352 12099 ft 303 kts 269°
2026-04-27 03:27 19.84792 110.00149 11981 ft 294 kts 269°
2026-04-27 03:28 19.84780 109.98009 11850 ft 286 kts 269°
2026-04-27 03:28 19.84769 109.95920 11723 ft 279 kts 269°
2026-04-27 03:28 19.84758 109.93890 11600 ft 272 kts 269°
2026-04-27 03:28 19.84747 109.91912 11489 ft 264 kts 269°
2026-04-27 03:29 19.84737 109.89993 11364 ft 256 kts 269°
2026-04-27 03:29 19.84727 109.88137 11320 ft 245 kts 269°
2026-04-27 03:29 19.84717 109.86347 11255 ft 242 kts 269°
2026-04-27 03:29 19.84982 109.84566 10946 ft 251 kts 295°
2026-04-27 03:30 19.86075 109.83132 10782 ft 255 kts 323°
2026-04-27 03:30 19.87741 109.82453 10503 ft 259 kts 351°
2026-04-27 03:30 19.89547 109.82353 10201 ft 257 kts 358°
2026-04-27 03:30 19.91305 109.82360 9976 ft 248 kts 359°
2026-04-27 03:31 19.92993 109.82628 9630 ft 247 kts 22°
2026-04-27 03:31 19.94322 109.83691 9404 ft 237 kts 52°
2026-04-27 03:31 19.95017 109.85229 9171 ft 227 kts 79°
2026-04-27 03:31 19.95156 109.86859 8975 ft 217 kts 91°
2026-04-27 03:32 19.95157 109.88454 8740 ft 215 kts 92°
2026-04-27 03:32 19.95151 109.90034 8513 ft 213 kts 92°
2026-04-27 03:32 19.95150 109.91603 8305 ft 212 kts 92°
2026-04-27 03:32 19.95291 109.93147 8043 ft 209 kts 72°
2026-04-27 03:33 19.95577 109.94595 7857 ft 198 kts 101°
2026-04-27 03:33 19.95351 109.96033 7738 ft 201 kts 98°
2026-04-27 03:33 19.95257 109.97538 7511 ft 206 kts 94°
2026-04-27 03:33 19.95222 109.99055 7295 ft 204 kts 93°
2026-04-27 03:34 19.95211 110.00551 7094 ft 200 kts 92°
2026-04-27 03:34 19.95209 110.02019 6876 ft 198 kts 92°
2026-04-27 03:34 19.95211 110.03458 6680 ft 191 kts 93°
2026-04-27 03:34 19.95213 110.04849 6468 ft 185 kts 92°
2026-04-27 03:35 19.95218 110.06183 6335 ft 174 kts 93°
2026-04-27 03:35 19.95223 110.07450 6096 ft 171 kts 93°
2026-04-27 03:35 19.95246 110.08694 5934 ft 169 kts 91°
2026-04-27 03:35 19.95277 110.09936 5729 ft 166 kts 92°
2026-04-27 03:36 19.95294 110.11150 5590 ft 163 kts 92°
2026-04-27 03:36 19.95304 110.12361 5372 ft 164 kts 93°
2026-04-27 03:36 19.95310 110.13550 5190 ft 158 kts 94°
2026-04-27 03:36 19.95313 110.14720 5046 ft 161 kts 93°
2026-04-27 03:37 19.95315 110.15909 5123 ft 164 kts 94°
2026-04-27 03:37 19.95317 110.17129 4909 ft 160 kts 94°
2026-04-27 03:37 19.95319 110.18302 4690 ft 156 kts 94°
2026-04-27 03:37 19.95321 110.19442 4501 ft 154 kts 94°
2026-04-27 03:38 19.95322 110.20581 4299 ft 155 kts 94°
2026-04-27 03:39 19.95328 110.25097 3509 ft 154 kts 94°
2026-04-27 03:39 19.95328 110.26220 3313 ft 150 kts 94°
2026-04-27 03:39 19.95331 110.27330 3150 ft 151 kts 95°
2026-04-27 03:39 19.95321 110.28449 2924 ft 149 kts 96°
2026-04-27 03:40 19.95326 110.29541 2759 ft 148 kts 94°
2026-04-27 03:40 19.95336 110.30649 2539 ft 149 kts 94°
2026-04-27 03:40 19.95341 110.31732 2350 ft 145 kts 94°
2026-04-27 03:40 19.95342 110.32809 2170 ft 146 kts 95°
2026-04-27 03:41 19.95345 110.33880 1969 ft 145 kts 95°
2026-04-27 03:41 19.95345 110.34950 1801 ft 144 kts 94°
2026-04-27 03:41 19.95348 110.36008 1603 ft 144 kts 92°
2026-04-27 03:41 19.95353 110.37075 1407 ft 144 kts 94°
2026-04-27 03:42 19.95353 110.38124 1246 ft 144 kts 93°
2026-04-27 03:42 19.95350 110.39194 1059 ft 146 kts 95°
2026-04-27 03:42 19.95357 110.40267 883 ft 143 kts 93°
2026-04-27 03:42 19.95355 110.41321 698 ft 146 kts 90°
2026-04-27 03:43 19.95382 110.42396 518 ft 142 kts 92°
2026-04-27 03:43 19.95388 110.43440 390 ft 141 kts 92°
2026-04-27 03:43 19.95390 110.44506 222 ft 146 kts 92°
2026-04-27 03:43 19.95384 110.45576 67 ft 137 kts 92°
2026-04-27 03:44 19.95374 110.46446 65 ft 90 kts 89°
2026-04-27 03:44 19.95376 110.46880 65 ft 17 kts 90°
2026-04-27 03:44 19.95351 110.46991 63 ft 15 kts 115°
2026-04-27 03:44 19.95304 110.47090 62 ft 15 kts 116°
2026-04-27 03:45 19.95219 110.47125 55 ft 16 kts 221°
2026-04-27 03:45 19.95207 110.47009 60 ft 16 kts 269°
2026-04-27 03:45 19.95207 110.46894 60 ft 15 kts 269°
2026-04-27 03:45 19.95208 110.46784 60 ft 15 kts 269°
2026-04-27 03:46 19.95205 110.46679 59 ft 14 kts 269°
2026-04-27 03:46 19.95206 110.46576 59 ft 14 kts 269°
2026-04-27 03:46 19.95207 110.46477 59 ft 13 kts 270°
2026-04-27 03:46 19.95206 110.46383 60 ft 13 kts 266°
2026-04-27 03:47 19.95137 110.46344 57 ft 13 kts 180°
2026-04-27 03:47 19.95058 110.46319 58 ft 13 kts 236°
2026-04-27 03:47 19.95017 110.46234 56 ft 13 kts 240°
2026-04-27 03:47 19.94984 110.46172 56 ft 7 kts 239°
2026-04-27 03:48 19.94972 110.46150 55 ft 0 kts 240°
2026-04-27 03:48 19.94970 110.46146 55 ft 0 kts 240°